Location: *
(13.4047°N, 2.1914°E)
Time: 16:21:00
(UTC+00:00)

Daily predictions for brighter satellites

Satellite Brightness Start Highest point End
(mag) Time Altitude Azimuth Time Altitude Azimuth Time Altitude Azimuth
Centaur AC-146 4.0 17:27:44 10° W 17:31:28 53° S 17:53:31 10° ESE
Cosmos 1626 4.1 17:46:32 10° NNW 17:49:56 35° W 17:53:21 10° SSW
SWIFT 3.1 17:48:35 10° SW 17:52:35 40° SSE 17:56:36 10° E
Centaur D-1A AC-31 1.2 17:47:45 10° SW 17:53:05 56° SSE 17:56:04 10° ENE
IUS-13 SRM-1 2.8 17:50:40 10° WNW 17:53:24 81° NNE 18:04:09 10° ESE
USA 116 3.6 17:50:23 10° NNE 17:53:54 67° E 17:57:52 10° S
Lacrosse 5 rocket 3.1 17:51:58 10° NNE 17:54:12 14° NE 17:56:31 10° E
SMAP 3.9 17:53:55 10° S 17:58:27 56° WSW 18:03:00 10° NNW
GPS 2-18 Rocket1 4.0 18:00:29 10° W 18:04:15 41° N 18:07:48 11° ENE
Envisat 3.1 17:59:47 10° SSE 18:04:45 56° ENE 18:09:41 10° N
Cosmos 2239 Rocket 4.5 17:58:39 10° N 18:04:47 89° E 18:10:56 10° S
Cosmos 1328 4.2 18:01:20 10° NNE 18:04:59 37° E 18:08:38 10° SSE
COSMO-SKYMED 1 3.8 18:01:06 10° N 18:05:14 45° WNW 18:09:21 10° SSW
Cosmos 1727 Rocket 4.1 17:59:49 10° SSE 18:05:46 50° E 18:11:41 10° NNE
ATLAS 3B R/B 2.9 18:00:57 10° S 18:07:38 51° ESE 18:14:07 10° NE
YAOGAN 6 3.1 18:07:20 10° SSE 18:10:47 38° ENE 18:14:11 10° N
USA 215 3.7 18:06:22 10° SSE 18:12:50 65° SW 18:19:20 10° NW
Cosmos 1821 Rocket 4.5 18:07:24 10° NNW 18:13:28 65° W 18:19:39 10° S
ASTEX 1 4.1 18:08:40 10° N 18:13:33 58° W 18:18:26 10° SSW
Cosmos 1605 Rocket 4.3 18:08:31 10° NNE 18:14:10 40° E 18:19:48 10° SSE
Cosmos 1953 Rocket 4.0 18:10:39 10° NNW 18:14:55 64° W 18:19:11 10° S
Cosmos 1300 3.2 18:12:09 10° SSE 18:15:41 37° E 18:19:13 10° NNE
CZ-4 R/B 1.6 18:11:49 10° SSE 18:15:44 47° ENE 18:19:44 10° N
Cosmos 1271 Rocket 4.0 18:13:53 10° NNW 18:17:43 46° W 18:21:32 10° SSW
CENTAUR R/B 2.1 18:12:39 10° SSW 18:17:55 66° ESE 18:23:44 10° NNE
GPS 2-12 Rocket1 3.9 18:14:00 10° WNW 18:18:21 38° N 18:21:11 18° ENE
CZ-4C R/B 3.3 18:10:47 10° NNW 18:18:57 84° WSW 18:27:23 10° SSE
Cosmos 1934 Rocket 4.0 18:14:41 10° N 18:21:03 84° E 18:27:25 10° S
ASTRO E2 2.6 18:18:02 10° WNW 18:22:02 86° SSW 18:25:04 17° ESE
CSL-04 Debris 4.3 18:20:45 10° SSE 18:25:58 50° ENE 18:31:11 10° N
Cosmos 1812 Rocket 3.5 18:24:01 10° S 18:28:23 88° E 18:32:48 10° N
YAOGAN 1 2.4 18:34:11 10° SSE 18:38:29 72° ENE 18:42:46 10° N
NOAA 15 4.5 18:33:51 10° SSE 18:39:07 75° ENE 18:44:24 10° N
ATLAS 5 CENTAUR R/B 2.9 18:36:17 10° SW 18:41:16 62° SSE 18:51:09 25° E
SL-4 R/B 2.7 18:38:47 10° NNW 18:41:14 29° NNE 18:41:14 29° NNE
Cosmos 1703 4.0 18:42:30 10° NNW 18:46:17 52° W 18:50:04 10° S
Ariane Rocket 4.2 18:49:29 24° NNE 18:49:29 24° NNE 18:51:57 10° NNE
Cosmos 1943 Rocket 3.3 18:43:58 10° SSE 18:47:09 25° SE 18:47:09 25° SE
H-2A R/B 3.8 18:47:52 10° S 18:48:56 11° S 18:49:47 10° SSE
SL-24 R/B 4.2 18:44:58 10° NNE 18:49:48 61° E 18:54:04 10° S
EO 1 Delta rocket 4.1 18:47:33 10° S 18:52:35 72° W 18:57:09 10° NNW
COSMOS 2406 3.1 18:47:40 10° NNW 18:53:22 75° ENE 18:59:03 10° SSE
OAO 1 4.4 18:48:56 10° SW 18:54:25 82° SE 18:56:05 46° ENE
Cosmos 468 Rocket 4.0 18:49:20 10° SSW 18:54:38 87° WNW 18:59:56 10° NNE
USA 234 3.1 18:53:38 24° NE 18:57:53 81° SE 19:04:26 10° SW
Cosmos 1570 Rocket 3.9 18:55:32 10° S 19:00:47 70° ESE 19:02:35 41° NNE
SEDSat Delta rocket 4.2 19:02:02 10° W 19:06:37 34° NNW 19:07:34 31° N
Cosmos 1153 Rocket 4.3 19:05:16 10° N 19:11:24 89° E 19:17:36 10° S
Atlas Centaur 2 3.7 19:07:35 10° W 19:12:46 28° SW 19:15:24 19° S
Cosmos 2208 Rocket 3.8 19:07:39 10° S 19:12:52 78° ESE 19:12:52 78° ESE
Cosmos-2242 3.6 19:13:17 10° S 19:16:45 53° SSW 19:16:45 53° SSW
Cosmos 2344 3.5 19:15:06 10° SSW 19:23:45 63° ESE 19:24:34 60° E
Lacrosse 5 rocket 3.2 19:29:39 10° WNW 19:32:57 28° WSW 19:32:57 28° WSW
SWIFT 4.2 19:30:15 10° W 19:32:30 30° W 19:32:30 30° W
Cosmos 44 Rocket 4.4 19:32:35 10° SSW 19:36:00 41° SW 19:36:00 41° SW
Ariane H10 4.1 19:37:45 10° WSW 19:41:53 26° SSW 19:41:53 26° SSW
ADEOS Rocket 3.8 19:46:27 10° N 19:53:31 56° WNW 19:59:54 10° SSW
Cosmos 2369 Rocket 4.0 19:55:23 10° SSW 19:57:35 24° SW 19:57:35 24° SW
CZ-3B R/B 4.2 19:55:58 10° WNW 20:18:26 77° NNE 20:20:18 73° ENE
